Regional Weather Roundup
Issued by NWS

Home | Current Version | Previous Version | Graphics & Text | Print | Product List | Glossary Off
Versions: 1 2 3 4 5 6 7 8 9 10 11 12 13 14 15 16 17 18 19 20 21 22 23 24 25 26 27 28 29 30 31 32 33 34 35 36 37 38 39 40 41 42 43 44 45 46 47 48 49 50

000
ASUS43 KMKX 250310
RWRWI

WISCONSIN REGIONAL WEATHER ROUNDUP
NATIONAL WEATHER SERVICE MILWAUKEE/SULLIVAN WI
900 PM CST SAT FEB 24 2018

NOTE: "FAIR" INDICATES FEW OR NO CLOUDS BELOW 12,000 FEET WITH NO
SIGNIFICANT WEATHER AND/OR OBSTRUCTIONS TO VISIBILITY.

WIZ001-002-006>008-014>016-023>028-250400-
NORTHWEST WISCONSIN

CITY           SKY/WX    TMP DP  RH WIND       PRES   REMARKS
SUPERIOR ARPT  LGT SNOW  25  24  96 E14G22    29.59F WCI  13
ASHLAND        SNOW      25  24  96 NE9       29.58F VSB 1/2 WCI  15
HAYWARD        SNOW      30  28  92 E3        29.54F VSB 1/2
SIREN          LGT SNOW  29  29  98 E3        29.54F VSB 1
CUMBERLAND     SNOW      30  28  93 E5        29.52F VSB 1/4 WCI  25
RICE LAKE      SNOW      30  29  98 E5        29.54F VSB 1/4 WCI  25
CHETEK         SNOW      29  29  99 CALM      29.53F VSB 1/2
LADYSMITH      LGT SNOW  31  29  94 SE10      29.55F WCI  22
EAU CLAIRE     SNOW      31  30  96 SE8       29.51F VSB 1/2 WCI  23
MENOMONIE      SNOW      32  31  98 SE3       29.53F VSB 1/2
NEW RICHMOND   LGT SNOW  30  28  94 E5        29.51F VSB 3/4 WCI  25
OSCEOLA        SNOW      30  30 100 E7        29.54F VSB 1/2 WCI  23
$$

WIZ003>005-009-010-017-018-250400-
NORTH CENTRAL WISCONSIN

CITY           SKY/WX    TMP DP  RH WIND       PRES   REMARKS
MANITOWISH WTR LGT SNOW  28  26  92 E10G21    29.51F WCI  18
ARBOR VITAE    LGT SNOW  29  25  85 SE21G32   29.51F WCI  16
WOODRUFF       LGT SNOW  29  25  85 SE21G32   29.51F WCI  16
RHINELANDER    LGT SNOW  28  26  92 E21       29.53F FOG     WCI  15
EAGLE RIVER    LGT SNOW  27  22  80 E16G24    29.55F WCI  15
LAND O LAKES   FLURRIES  29  22  75 E14G22    29.58F WCI  18
PHILLIPS       LGT SNOW  28  27  93 SE12G20   29.50F WCI  18
TOMAHAWK       LGT SNOW  28  26  91 E5        29.54F VSB 1   WCI  23
MEDFORD        MIX PCPN  28  26  91 SE9G25    29.50F WCI  20
MERRILL        MIX PCPN  29  27  90 SE10G22   29.55F WCI  20
$$

WIZ029-030-035-036-043>047-250400-
CENTRAL WISCONSIN

CITY           SKY/WX    TMP DP  RH WIND       PRES   REMARKS
WAUSAU         CLOUDY    30  27  88 SE21G31   29.51F WCI  17
MOSINEE        CLOUDY    30  28  93 E16G29    29.55F WCI  19
MARSHFIELD     LGT SNOW  31  30  96 SE21G26   29.50F FOG     WCI  18
STEVENS POINT  MIX PCPN  30  30 100 E12       29.54F WCI  20
WAUPACA        RAIN      34  32  91 E8        29.59F WCI  27
WAUTOMA        FRZ RAIN  32  30  93 E15       29.57F WCI  22
WISC RAPIDS    MIX PCPN  32  29  88 SE15G28   29.54F WCI  22
CAMP DOUGLAS   MIX PCPN  33  33  99 SE10      29.51F FOG     WCI  25
$$

WIZ011>013-019>022-031-037>040-048>050-250400-
NORTHEAST WISCONSIN

CITY           SKY/WX    TMP DP  RH WIND       PRES   REMARKS
ANTIGO         MIX PCPN  28  26  96 E26G32    29.56F WCI  12
SHAWANO        DRIZZLE   33  31  91 E10       29.62F WCI  25
OCONTO         CLOUDY    33  31  93 SE10      29.68F WCI  24
STURGEON BAY   LGT RAIN  34  30  85 E18G29    29.68F WCI  23
GREEN BAY      LGT RAIN  34  31  88 E18G28    29.65F WCI  23
MANITOWOC      LGT RAIN  33  32  96 SE17G25   29.67F WCI  22
APPLETON       LGT RAIN  34  32  93 E16       29.59F WCI  23
CLINTONVILLE   MIX PCPN  32  31  93 E14       29.60F WCI  22
OSHKOSH        CLOUDY    34  33  96 SE18G25   29.57F WCI  23
$$

WIZ032>034-041-042-053>061-250400-
SOUTHWEST WISCONSIN

CITY           SKY/WX    TMP DP  RH WIND       PRES   REMARKS
LA CROSSE      LGT SNOW  33  33 100 SW3       29.53F VSB 3/4
SPARTA         MIX PCPN  33  32  98 SE3       29.53F
VIROQUA        CLOUDY    33  33 100 SE5       29.51S WCI  28
BOSCOBEL       LGT RAIN  36  35  96 CALM      29.54F FOG
PRAIRIE DU CHI RAIN      35  34  96 CALM      29.54S
PLATTEVILLE    MOCLDY    36  36 100 W13       29.53R WCI  27
$$

WIZ056-057-062-063-064-067-068-250400-
SOUTH CENTRAL WISCONSIN

CITY           SKY/WX    TMP DP  RH WIND       PRES   REMARKS
REEDSBURG      RAIN      34  34 100 E3        29.51F
BARABOO/DELLS  LGT RAIN  35  34  96 E12G20    29.51F WCI  26
LONE ROCK      RAIN      36  36 100 E7        29.51F FOG     WCI  30
MINERAL POINT  RAIN      36  36 100 SE9       29.49F WCI  29
MADISON        LGT RAIN  37  36  96 SE16G25   29.53F FOG     WCI  28
MIDDLETON      CLOUDY    38  38  99 SE15      29.51F WCI  29
WATERTOWN      LGT RAIN  37  37 100 E18G24    29.55F WCI  27
MONROE         RAIN      37  36  93 E12       29.50F VSB 1/2 WCI  30
JANESVILLE     RAIN      39  39 100 SE10G17   29.55F WCI  32
$$

WIZ051-052-058>065-066-070>072-250400-
SOUTHEAST WISCONSIN

CITY           SKY/WX    TMP DP  RH WIND       PRES   REMARKS
MILWAUKEE      LGT RAIN  38  37  97 E8        29.62F WCI  32
WAUKESHA       CLOUDY    36  34  93 E14       29.63F FOG     WCI  27
MILWAUKEE/TIMM DRIZZLE   36  34  93 E8        29.65F WCI  29
RACINE         CLOUDY    38  36  92 SE13G20   29.63F WCI  30
BURLINGTON     MIX PCPN  37  36  95 E12       29.58F WCI  30
KENOSHA        LGT RAIN  38  36  92 SE18G28   29.60F FOG     WCI  28
FOND DU LAC    LGT RAIN  36  32  85 SE24G36   29.57F WCI  24
SHEBOYGAN      LGT RAIN  34  34 100 E13       29.65F FOG     WCI  25
WEST BEND      LGT RAIN  34  34 100 E13       29.63F WCI  25
JUNEAU         LGT RAIN  35  34  96 E21G30    29.57F WCI  24
$$

LSZ147-162-250400-
LAKE SUPERIOR

STATION/POSITION TIME  TEMP    WIND        PRES    WAVE
                       AIR SEA DIR/SP/G            HT/PER
                 (UTC) (F)     (DEG/KT/KT) (MB)    (FT/S)
DEVILS ISLAND    0300   28      70/ 26/ 31 1003.1F
SAXON HARBOR     0240   29      50/  6/ 10 1002.0F
$$

LMZ867-665-643>646-250400-
LAKE MICHIGAN

STATION/POSITION TIME  TEMP    WIND        PRES    WAVE
                       AIR SEA DIR/SP/G            HT/PER
                 (UTC) (F)     (DEG/KT/KT) (MB)    (FT/S)
NORTHPORT PIER   0240   35                 1007.1F
KEWAUNEE LAKESHO 0242   34     110/ 17/ 23 1005.3F
SHEBOYGAN LAKESH 0300   35     110/ 15/ 17 1004.8F
PORT WASHINGTON  0240   36     100/  9/ 11 1005.8F
KENOSHA   LAKESH 0300   37     140/ 10/ 12 1003.0
$$

TC  - TEMPERATURE IN CELSIUS
VSB - VISIBILITY IN STATUTE MILES
WCI - WIND CHILL INDEX
HX  - HEAT INDEX




USA.gov is the U.S. government's official web portal to all federal, state and local government web resources and services.